Lexington Weather

Lexington, Massachusetts, USA

49°F
12/8/2022 2:48pm 
  • Lexington Conditions: Clear
  • Temperature: 48.6°F / 9.2°CColder 1.2°F than last hour.
  • Dew Point: 35.2°FDecreased 0.9°Fsince last hour.
  • Relative Humidity: 60%Increased 1.0% since last hour.
  • Wind: Wind from NNW NNW 2 mph, 10-min avg: 3 mph, gust: 9 mph
  • Barometer: 30.07 in Steady
  • Visibility: 10 miles
  • Rain Today: 0.00 in
  •   

Warning: Undefined variable $rc in /homepages/6/d276339138/htdocs/weather/20190804/ssi/nwsProduct.php on line 323

Warning: Undefined variable $rc in /homepages/6/d276339138/htdocs/weather/20190804/ssi/nwsProduct.php on line 325

Warning: Undefined variable $rc in /homepages/6/d276339138/htdocs/weather/20190804/ssi/nwsProduct.php on line 323

Warning: Undefined variable $rc in /homepages/6/d276339138/htdocs/weather/20190804/ssi/nwsProduct.php on line 325

Warning: Undefined variable $rc in /homepages/6/d276339138/htdocs/weather/20190804/ssi/nwsProduct.php on line 323

Warning: Undefined variable $rc in /homepages/6/d276339138/htdocs/weather/20190804/ssi/nwsProduct.php on line 325

Warning: Undefined variable $rc in /homepages/6/d276339138/htdocs/weather/20190804/ssi/nwsProduct.php on line 323

Warning: Undefined variable $rc in /homepages/6/d276339138/htdocs/weather/20190804/ssi/nwsProduct.php on line 325

Warning: Undefined variable $rc in /homepages/6/d276339138/htdocs/weather/20190804/ssi/nwsProduct.php on line 323

Warning: Undefined variable $rc in /homepages/6/d276339138/htdocs/weather/20190804/ssi/nwsProduct.php on line 325

Warning: Undefined variable $rc in /homepages/6/d276339138/htdocs/weather/20190804/ssi/nwsProduct.php on line 323

Warning: Undefined variable $rc in /homepages/6/d276339138/htdocs/weather/20190804/ssi/nwsProduct.php on line 325

Warning: Undefined variable $rc in /homepages/6/d276339138/htdocs/weather/20190804/ssi/nwsProduct.php on line 323

Warning: Undefined variable $rc in /homepages/6/d276339138/htdocs/weather/20190804/ssi/nwsProduct.php on line 325

Regional Weather Roundup
for Boston, MA

        
000
ASUS41 KBOX 040910
RWRBOX

REGIONAL WEATHER ROUNDUP
NATIONAL WEATHER SERVICE BOSTON/NORTON MA
400 AM EST SUN DEC 04 2022

NOTE:  "FAIR" INDICATES FEW OR NO CLOUDS BELOW 12,000 FEET WITH NO 
SIGNIFICANT WEATHER AND/OR OBSTRUCTIONS TO VISIBILITY.

MAZALL-041000-
EASTERN MASSACHUSETTS
  
CITY           SKY/WX    TMP DP  RH WIND       PRES   REMARKS
BOSTON         CLEAR     39  24  55 W14       30.07R WCI  31          
BEVERLY        CLEAR     36  23  59 W3        30.04R                  
LAWRENCE       MOCLDY    38  23  55 W5        30.06R                  
BEDFORD        CLEAR     37  24  59 W7        30.05R WCI  32          
NORWOOD        CLEAR     38  22  52 W6        30.08R                  
MARSHFIELD       N/A     37  25  60 W5        30.06S                  
PLYMOUTH       CLEAR     37  23  56 W6        30.06R                  
TAUNTON          N/A    N/A N/A N/A MISG      30.08S                  
NEW BEDFORD    CLEAR     37  23  56 W8        30.08S WCI  31          
$$

MAZALL-041000-
CAPE COD AND THE ISLANDS
  
CITY           SKY/WX    TMP DP  RH WIND       PRES   REMARKS
FALMOUTH       NOT AVBL                                               
HYANNIS        CLEAR     37  25  61 W8        30.05R WCI  31          
CHATHAM        CLEAR     41  26  55 W7        30.07R                  
PROVINCETOWN   MOCLDY    42  28  57 W21G26    30.06R                  
NANTUCKET      CLEAR     43  26  51 NW14      30.08R                  
MARTHAS VNYRD  CLEAR     40  25  55 NW9       30.08S                  
$$
 
MAZALL-041000-
CENTRAL AND WESTERN MASSACHUSETTS
  
CITY           SKY/WX    TMP DP  RH WIND       PRES   REMARKS
WORCESTER      CLEAR     35  19  52 NW12G21   30.03R WCI  27          
FITCHBURG      CLEAR     36  20  52 NW8       30.07R WCI  30          
ORANGE         CLEAR     35  19  52 NW12G17   30.07F WCI  27          
SPRINGFIELD    PTCLDY    35  20  54 NW7       30.08S WCI  29          
WESTFIELD      PTCLDY    36  20  52 NW17G25   30.10F WCI  26          
NORTH ADAMS    CLOUDY    35  21  56 W13       30.13R WCI  26          
PITTSFIELD     CLOUDY    33  20  58 NW16G32   30.09R WCI  23          
$$
 
RIZALL-041000-
RHODE ISLAND
  
CITY           SKY/WX    TMP DP  RH WIND       PRES   REMARKS
PROVIDENCE     CLEAR     37  21  52 VRB7      30.10R WCI  32          
NEWPORT        CLEAR     37  22  54 NW12G22   30.09S WCI  29          
BLOCK ISLAND   CLEAR     38  23  55 N14G21    30.12R WCI  30          
SMITHFIELD     CLEAR     34  21  59 NW8       30.07S WCI  27          
WESTERLY       CLEAR     38  23  55 VRB5      30.10S                  
$$
 
CTZALL-041000-
CONNECTICUT
  
CITY           SKY/WX    TMP DP  RH WIND       PRES   REMARKS
BRADLEY INTL   PTCLDY    37  22  54 NW8       30.10F WCI  31          
HARTFORD       CLEAR     38  23  55 NW6       30.12F                  
BRIDGEPORT     CLEAR     38  25  59 W5        30.14R                  
DANBURY        CLEAR     38  20  48 VRB6      30.14R                  
GROTON         CLEAR     40  23  50 NW9       30.11R                  
NEW HAVEN      CLEAR     41  26  55 NW7       30.12F                  
CHESTER        FAIR      36  25  64 NW6       30.10S WCI  31          
MERIDEN        CLEAR     36  23  59 NW5       30.12F                  
WILLIMANTIC    CLEAR     36  22  56 NW10      30.10F WCI  28          
OXFORD         CLEAR     35  22  58 NW5       30.11R WCI  31          
$$

MEZ002-015-021-024-NHZ003-005-008-011-012-014-VTZ005-008-041000-
NORTHERN NEW ENGLAND
  
CITY           SKY/WX    TMP DP  RH WIND       PRES   REMARKS
PORTLAND ME    CLEAR     37  23  56 W6        29.98R                  
BANGOR ME      MOCLDY    40  27  59 NW13G28   29.90R                  
CONCORD NH     CLEAR     37  19  48 NW17G25   30.04R WCI  27          
MANCHESTER NH  MOCLDY    39  21  48 NW5       30.03R                  
NASHUA NH      CLOUDY    38  22  52 W10G16    30.05S WCI  31          
PORTSMOUTH NH  PTCLDY    37  21  52 W12G23    30.03R WCI  30          
JAFFREY NH     PTCLDY    35  20  54 W12       30.03R WCI  27          
KEENE NH       PTCLDY    36  20  52 W6          N/A  WCI  31          
BURLINGTON VT  CLOUDY    34  20  56 NW15G25   30.12R WCI  24          
MT. WASHINGTON SNOW      10  10 100 W59G71      N/A  VSB 0   WCI -18  
$$

NYZ052-076-041000-
EASTERN NEW YORK
  
CITY           SKY/WX    TMP DP  RH WIND       PRES   REMARKS
ALBANY         CLOUDY    37  22  54 W14G22    30.17R WCI  28          
NEW YORK CITY  CLEAR     42  24  49 NW16      30.17R                  
$$
 
ANZALL-041000-
MARINE OBSERVATIONS
  
STATION/POSITION TIME  TEMP    WIND        PRES    VSBY  WAVE
                       AIR SEA DIR/SP/G                  HT/PER
                 (UTC) (F)     (DEG/KT/KT) (MB)    (MI)  (FT/S)
BOSTON BUOY      0850      51  290/ 19/ 25 1018.2R         3/ 4
BUZZARDS BAY     0800   41     310/ 29/ 32 1019.3R
NANTUCKET SOUND  0850   43 49  280/ 17/ 23 1018.3R         2/ 3
MASS BAY-STELLWA 0704   44 50  300/ 19/ 23 1015.3R  1 7/8  2/ 4
ISLE OF SHOALS   0800   41     280/ 28/ 30 1015.0R
S OF BLOCK IS    0856      54                N/A           9/ 8
$$

......................KEY.........................
  SKY/WX - SKY CONDITION/PRESENT WEATHER
  TMP    - TEMPERATURE IN FAHRENHEIT
  DWPT   - DEWPOINT IN FAHRENHEIT
  RH     - RELATIVE HUMIDITY IN PERCENT
  WIND   - DIRECTION AND SPEED IN MPH
  PRES   - MEAN SEA LEVEL PRESSURE IN INCHES OF HG
  WCI    - WIND CHILL INDEX
  VSB    - VISIBILITY IN MILES
  HX     - HEAT INDEX
  TC     - TEMPERATURE IN CELSIUS
  VRB    - VARIABLE WIND DIRECTION
  N/A    - NOT AVAILABLE
  
      

Other recent Regional Weather Roundups

Thu Dec 8, 2:10pm

Thu Dec 8, 1:10pm

Thu Dec 8, 12:10pm

Thu Dec 8, 11:10am

Thu Dec 8, 10:10am

Thu Dec 8, 9:10am

Thu Dec 8, 8:10am

Thu Dec 8, 7:10am

Thu Dec 8, 6:10am

Thu Dec 8, 5:10am

Thu Dec 8, 4:10am

Thu Dec 8, 3:10am

Thu Dec 8, 2:10am

Thu Dec 8, 1:10am

Thu Dec 8, 12:10am

Wed Dec 7, 11:10pm

Wed Dec 7, 10:10pm

Wed Dec 7, 9:10pm

Wed Dec 7, 8:10pm

Wed Dec 7, 7:10pm

Wed Dec 7, 6:10pm

Wed Dec 7, 5:10pm

Wed Dec 7, 4:10pm

Wed Dec 7, 3:10pm

Wed Dec 7, 2:10pm

Wed Dec 7, 1:10pm

Wed Dec 7, 12:10pm

Wed Dec 7, 11:10am

Wed Dec 7, 10:10am

Wed Dec 7, 9:10am

Wed Dec 7, 8:10am

Wed Dec 7, 7:10am

Wed Dec 7, 6:10am

Wed Dec 7, 5:10am

Wed Dec 7, 4:10am

Wed Dec 7, 3:10am

Wed Dec 7, 2:10am

Wed Dec 7, 1:10am

Wed Dec 7, 12:10am

Tue Dec 6, 11:10pm

Tue Dec 6, 10:10pm

Tue Dec 6, 9:10pm

Tue Dec 6, 8:10pm

Tue Dec 6, 7:10pm

Tue Dec 6, 6:10pm

Tue Dec 6, 5:10pm

Tue Dec 6, 4:10pm

Tue Dec 6, 3:10pm

Tue Dec 6, 2:10pm

Tue Dec 6, 1:10pm

Tue Dec 6, 12:10pm

Tue Dec 6, 11:10am

Tue Dec 6, 10:10am

Tue Dec 6, 9:10am

Tue Dec 6, 8:10am

Tue Dec 6, 7:10am

Tue Dec 6, 6:10am

Tue Dec 6, 5:10am

Tue Dec 6, 4:10am

Tue Dec 6, 3:10am

Tue Dec 6, 2:10am

Tue Dec 6, 1:10am

Tue Dec 6, 12:10am

Mon Dec 5, 11:10pm

Mon Dec 5, 10:10pm

Mon Dec 5, 9:10pm

Mon Dec 5, 8:10pm

Mon Dec 5, 7:10pm

Mon Dec 5, 6:10pm

Mon Dec 5, 5:10pm

Mon Dec 5, 4:10pm

Mon Dec 5, 3:10pm

Mon Dec 5, 2:10pm

Mon Dec 5, 1:10pm

Mon Dec 5, 12:10pm

Mon Dec 5, 11:10am

Mon Dec 5, 10:10am

Mon Dec 5, 9:10am

Mon Dec 5, 8:10am

Mon Dec 5, 7:10am

Mon Dec 5, 6:10am

Mon Dec 5, 5:10am

Mon Dec 5, 4:10am

Mon Dec 5, 3:10am

Mon Dec 5, 2:10am

Mon Dec 5, 1:10am

Mon Dec 5, 12:10am

Sun Dec 4, 11:10pm

Sun Dec 4, 10:10pm

Sun Dec 4, 9:10pm

Sun Dec 4, 8:10pm

Sun Dec 4, 7:10pm

Sun Dec 4, 6:10pm

Sun Dec 4, 5:10pm

Sun Dec 4, 4:10pm

Sun Dec 4, 3:10pm

Sun Dec 4, 2:10pm

Sun Dec 4, 1:10pm

Sun Dec 4, 12:10pm

Sun Dec 4, 11:10am

Sun Dec 4, 10:10am

Sun Dec 4, 9:10am

Sun Dec 4, 8:10am

Sun Dec 4, 7:10am

Sun Dec 4, 6:10am

Sun Dec 4, 5:10am

Sun Dec 4, 3:10am

Sun Dec 4, 2:10am

Sun Dec 4, 1:10am

Sun Dec 4, 12:10am

Sat Dec 3, 11:10pm

Sat Dec 3, 10:10pm

Sat Dec 3, 9:10pm

Sat Dec 3, 8:10pm

Sat Dec 3, 7:10pm

Sat Dec 3, 6:10pm

Sat Dec 3, 5:10pm

Sat Dec 3, 4:10pm

Sat Dec 3, 3:10pm

Sat Dec 3, 2:10pm

Sat Dec 3, 1:10pm

Sat Dec 3, 12:10pm

Sat Dec 3, 11:10am

Sat Dec 3, 10:10am

Sat Dec 3, 9:10am

Sat Dec 3, 8:10am

Sat Dec 3, 7:10am

Sat Dec 3, 6:10am

Sat Dec 3, 5:10am

Sat Dec 3, 4:10am

Sat Dec 3, 3:10am

Sat Dec 3, 2:10am

Sat Dec 3, 1:10am

Sat Dec 3, 12:10am

Fri Dec 2, 11:10pm

Fri Dec 2, 10:10pm

Fri Dec 2, 9:10pm

Fri Dec 2, 8:10pm

Fri Dec 2, 7:10pm

Fri Dec 2, 6:10pm

Fri Dec 2, 5:10pm

Fri Dec 2, 4:10pm

Fri Dec 2, 3:10pm

Fri Dec 2, 2:10pm

Fri Dec 2, 1:10pm

Fri Dec 2, 12:10pm

Fri Dec 2, 11:10am

Fri Dec 2, 10:10am

Fri Dec 2, 9:10am

Fri Dec 2, 8:10am

Fri Dec 2, 7:10am

Fri Dec 2, 6:10am

Fri Dec 2, 5:10am

Fri Dec 2, 4:10am

Fri Dec 2, 3:10am

Fri Dec 2, 2:10am

Fri Dec 2, 1:10am

Fri Dec 2, 12:10am

Thu Dec 1, 11:10pm

Thu Dec 1, 10:10pm

Thu Dec 1, 9:10pm

Thu Dec 1, 8:10pm

Thu Dec 1, 7:10pm

Thu Dec 1, 6:10pm

Thu Dec 1, 5:10pm

Thu Dec 1, 4:10pm

Thu Dec 1, 3:10pm

Meta data:

ID: cdfae971-23b0-4622-85a1-0bc08ba18dca
Link: https://api.weather.gov/products/cdfae971-23b0-4622-85a1-0bc08ba18dca